Location: Brede
(50.9167°N, 0.6000°E)
Time: 08:46:55
(UTC+00:00)

Tiros 1 - Pass Details

Date: 26 November 2020
Orbit: 630 x 663 km, 48.4° (Epoch: 16 January)

Event Time Altitude Azimuth Distance (km) Brightness Sun altitude
Rises 17:15:25 0° 238° (WSW) 2,986 12.4 -11.7°
Reaches altitude 10° 17:17:50 10° 232° (SW) 2,073 11.0 -12.1°
Maximum altitude 17:22:24 46° 160° (SSE) 887 7.8 -12.8°
Enters shadow 17:25:39 18° 94° (E) 1,600 8.6 -13.3°
